| time (UTC) | temp C | wind direction | speed KPH | gust KPH | rain 1hr cm | rain 24hr cm | rain mn cm | humidity % | barometer mb |
| 20260504005312 | 12 | 281 | 14.5 | 25.7 | 0.00 | 0.00 | 0.00 | 74 | 1008.8 |
| 20260504003811 | 10 | 254 | 14.5 | 16.1 | 0.00 | 0.00 | 0.00 | 81 | 1008.8 |
| 20260504002312 | 11 | 277 | 9.7 | 20.9 | 0.00 | 0.00 | 0.00 | 80 | 1008.5 |
| 20260504000812 | 11 | 265 | 14.5 | 24.1 | 0.00 | 0.00 | 0.00 | 79 | 1008.5 |
| 20260503235312 | 11 | 277 | 14.5 | 19.3 | 0.00 | 0.00 | 0.00 | 78 | 1008.1 |
| 20260503233813 | 11 | 273 | 11.3 | 20.9 | 0.00 | 0.00 | 0.00 | 78 | 1008.5 |
| 20260503232313 | 11 | 261 | 19.3 | 20.9 | 0.00 | 0.00 | 0.00 | 76 | 1008.5 |
| 20260503230811 | 11 | 255 | 14.5 | 22.5 | 0.00 | 0.00 | 0.00 | 77 | 1008.8 |
| 20260503223812 | 12 | 260 | 12.9 | 27.4 | 0.00 | 0.00 | 0.00 | 76 | 1008.8 |
| 20260503222311 | 12 | 252 | 20.9 | 27.4 | 0.00 | 0.00 | 0.00 | 72 | 1008.5 |
| 20260503220812 | 12 | 247 | 16.1 | 22.5 | 0.00 | 0.00 | 0.00 | 73 | 1008.8 |
| 20260503215312 | 12 | 269 | 20.9 | 25.7 | 0.00 | 0.00 | 0.00 | 74 | 1008.8 |
| 20260503213812 | 12 | 267 | 14.5 | 22.5 | 0.00 | 0.00 | 0.00 | 75 | 1008.8 |
| 20260503212313 | 13 | 312 | 16.1 | 25.7 | 0.00 | 0.00 | 0.00 | 72 | 1008.8 |
| 20260503210812 | 13 | 257 | 16.1 | 24.1 | 0.00 | 0.00 | 0.00 | 73 | 1008.8 |
| 20260503205312 | 13 | 250 | 14.5 | 20.9 | 0.00 | 0.00 | 0.00 | 73 | 1008.8 |
| 20260503203812 | 13 | 271 | 19.3 | 25.7 | 0.00 | 0.00 | 0.00 | 73 | 1008.8 |
| 20260503202313 | 13 | 235 | 16.1 | 25.7 | 0.00 | 0.00 | 0.00 | 71 | 1009.1 |
| 20260503200812 | 13 | 254 | 20.9 | 22.5 | 0.00 | 0.00 | 0.00 | 72 | 1009.1 |
| 20260503195313 | 13 | 258 | 12.9 | 16.1 | 0.00 | 0.00 | 0.00 | 71 | 1009.5 |
| 20260503193813 | 11 | 241 | 11.3 | 19.3 | 0.00 | 0.00 | 0.00 | 84 | 1009.8 |
| 20260503192314 | 13 | 245 | 14.5 | 19.3 | 0.00 | 0.00 | 0.00 | 80 | 1009.8 |
| 20260503190814 | 12 | 246 | 19.3 | 24.1 | 0.00 | 0.00 | 0.00 | 75 | 1010.2 |
| 20260503185318 | 12 | 262 | 12.9 | 20.9 | 0.00 | 0.00 | 0.00 | 79 | 1010.2 |
| 20260503183816 | 12 | 265 | 16.1 | 22.5 | 0.00 | 0.00 | 0.00 | 77 | 1010.5 |
| 20260503182313 | 12 | 255 | 20.9 | 25.7 | 0.00 | 0.00 | 0.00 | 78 | 1010.8 |
| 20260503180813 | 11 | 262 | 16.1 | 25.7 | 0.00 | 0.00 | 0.00 | 80 | 1011.2 |
| 20260503175314 | 11 | 230 | 16.1 | 22.5 | 0.00 | 0.00 | 0.00 | 79 | 1011.2 |
| 20260503173813 | 11 | 262 | 19.3 | 27.4 | 0.00 | 0.00 | 0.00 | 78 | 1011.2 |
| 20260503172316 | 11 | 257 | 16.1 | 24.1 | 0.00 | 0.00 | 0.00 | 79 | 1011.5 |
| 20260503170814 | 12 | 239 | 14.5 | 22.5 | 0.00 | 0.00 | 0.00 | 74 | 1011.5 |
| 20260503150814 | 11 | 255 | 22.5 | 25.7 | 0.00 | 0.00 | 0.00 | 75 | 1012.2 |
| 20260503130813 | 9 | 254 | 16.1 | 22.5 | 0.00 | 0.00 | 0.00 | 79 | 1013.2 |
| 20260503110818 | 5 | 253 | 4.8 | 11.3 | 0.00 | 0.00 | 0.00 | 67 | 1013.9 |
| 20260503080814 | 4 | 298 | 4.8 | 8.0 | 0.00 | 0.00 | 0.00 | 71 | 1013.9 |
| 20260503072314 | 5 | 294 | 4.8 | 8.0 | 0.00 | 0.00 | 0.00 | 69 | 1014.2 |
| 20260503070813 | 5 | 288 | 4.8 | 8.0 | 0.00 | 0.00 | 0.00 | 69 | 1014.2 |
| 20260503053813 | 5 | 288 | 3.2 | 8.0 | 0.00 | 0.00 | 0.00 | 64 | 1014.6 |
| 20260503052313 | 5 | 288 | 4.8 | 8.0 | 0.00 | 0.00 | 0.00 | 65 | 1014.9 |
| 20260503050816 | 5 | 294 | 4.8 | 9.7 | 0.00 | 0.00 | 0.00 | 64 | 1014.9 |
| 20260503045314 | 5 | 291 | 4.8 | 8.0 | 0.00 | 0.00 | 0.00 | 64 | 1014.7 |
| 20260503043813 | 5 | 289 | 3.2 | 8.0 | 0.00 | 0.00 | 0.00 | 65 | 1014.9 |
| 20260503042315 | 5 | 291 | 3.2 | 8.0 | 0.00 | 0.00 | 0.00 | 64 | 1015.2 |
| 20260503040813 | 5 | 294 | 3.2 | 4.8 | 0.00 | 0.00 | 0.00 | 65 | 1014.9 |
| 20260503035314 | 5 | 297 | 3.2 | 4.8 | 0.00 | 0.00 | 0.00 | 64 | 1015.2 |
| 20260503033815 | 5 | 279 | 3.2 | 4.8 | 0.00 | 0.00 | 0.00 | 63 | 1015.2 |
| 20260503032313 | 5 | 286 | 3.2 | 3.2 | 0.00 | 0.00 | 0.00 | 70 | 1015.2 |
| 20260503030812 | 6 | 267 | 1.6 | 8.0 | 0.00 | 0.00 | 0.00 | 71 | 1015.6 |
| 20260503025313 | 6 | 258 | 1.6 | 4.8 | 0.00 | 0.00 | 0.00 | 77 | 1015.2 |
| 20260503023813 | 6 | 243 | 3.2 | 11.3 | 0.00 | 0.00 | 0.00 | 78 | 1015.6 |
| 20260503022314 | 6 | 239 | 4.8 | 11.3 | 0.00 | 0.00 | 0.00 | 78 | 1015.6 |
| 20260503020813 | 6 | 235 | 9.7 | 11.3 | 0.00 | 0.00 | 0.00 | 76 | 1015.6 |
| 20260503015314 | 6 | 242 | 8.0 | 11.3 | 0.00 | 0.00 | 0.00 | 83 | 1015.6 |
| 20260503013814 | 6 | 224 | 8.0 | 11.3 | 0.00 | 0.00 | 0.00 | 78 | 1015.2 |
| 20260503012313 | 6 | 217 | 11.3 | 14.5 | 0.00 | 0.00 | 0.00 | 77 | 1015.6 |
| 20260503010813 | 6 | 243 | 9.7 | 12.9 | 0.00 | 0.00 | 0.00 | 78 | 1015.6 |